WetterOnline ( http://www.wetteronline.ch )

Wetter aktuell Sonthofen/Oberallgäu

Aktuelles Wetter: Oberstdorf (812m)

6-stündlich | Neueste Meldungen
Ortszeit Temperatur Wetter
Mo, 22.10. 2:00 -0.6° C wolkenlos
So, 21.10. 20:00 3.9° C wolkenlos
So, 21.10. 14:00 12.1° C bedeckt
So, 21.10. 8:00 5.4° C bedeckt
So, 21.10. 2:00 7.2° C bedeckt
Sa, 20.10. 20:00 6.5° C wolkenlos
Sa, 20.10. 14:00 14.5° C wolkenlos
Sa, 20.10. 8:00 6.4° C bedeckt
Ortszeit Temperatur Wetter
Mo, 22.10. 4:30 -2.3° C fast wolkenlos
Mo, 22.10. 4:20 -2.3° C fast wolkenlos
Mo, 22.10. 4:10 -1.6° C fast wolkenlos
Mo, 22.10. 4:00 -1.9° C Nebel
Mo, 22.10. 3:50 -1.9° C Nebel
Mo, 22.10. 3:40 -1.1° C Nebel
Mo, 22.10. 3:30 -1.7° C leicht bewölkt
Mo, 22.10. 3:00 -1.3° C fast wolkenlos
Mo, 22.10. 2:30 -1.5° C wolkenlos
Mo, 22.10. 2:00 -0.6° C wolkenlos
Mo, 22.10. 1:30 -0.3° C Nebel
Mo, 22.10. 1:00 0.2° C fast wolkenlos
Ortszeit Relative Feuchte Sichtweite
Mo, 22.10. 2:00 98% 3.6 km
So, 21.10. 20:00 90% 8 km
So, 21.10. 14:00 72% 5.0 km
So, 21.10. 8:00 94% 6 km
So, 21.10. 2:00 92% 4.7 km
Sa, 20.10. 20:00 91% 3.2 km
Sa, 20.10. 14:00 63% 10 km
Sa, 20.10. 8:00 91% 10 km
Ortszeit Relative Feuchte Sichtweite
Mo, 22.10. 4:30 93% 4.3 km
Mo, 22.10. 4:20 93% -
Mo, 22.10. 4:10 98% -
Mo, 22.10. 4:00 96% 0.4 km
Mo, 22.10. 3:50 96% -
Mo, 22.10. 3:40 99% -
Mo, 22.10. 3:30 96% 4.1 km
Mo, 22.10. 3:00 96% 3.5 km
Mo, 22.10. 2:30 96% 2.6 km
Mo, 22.10. 2:00 98% 3.6 km
Mo, 22.10. 1:30 97% 0.9 km
Mo, 22.10. 1:00 96% 3.0 km
Ortszeit Niederschlagsmenge Niederschlagsart
Mo, 22.10. 2:00 0.0 l/m2 in 6 Std. -
So, 21.10. 20:00 0.0 l/m2 in 12 Std. -
So, 21.10. 14:00 0.0 l/m2 in 6 Std. -
So, 21.10. 8:00 0.0 l/m2 in 12 Std. -
So, 21.10. 2:00 0.0 l/m2 in 6 Std. -
Sa, 20.10. 20:00 0.0 l/m2 in 12 Std. -
Sa, 20.10. 14:00 0.0 l/m2 in 6 Std. -
Sa, 20.10. 8:00 0.0 l/m2 in 12 Std. -
Ortszeit Niederschlagsmenge Niederschlagsart
Mo, 22.10. 4:30 0.0 l/m2 in 1 Std. -
Mo, 22.10. 4:20 keine Meldung -
Mo, 22.10. 4:10 keine Meldung -
Mo, 22.10. 4:00 0.0 l/m2 in 1 Std. -
Mo, 22.10. 3:50 keine Meldung -
Mo, 22.10. 3:40 keine Meldung -
Mo, 22.10. 3:30 0.0 l/m2 in 1 Std. -
Mo, 22.10. 3:00 0.0 l/m2 in 1 Std. -
Mo, 22.10. 2:30 0.0 l/m2 in 1 Std. -
Mo, 22.10. 2:00 0.0 l/m2 in 1 Std. -
Mo, 22.10. 1:30 0.0 l/m2 in 1 Std. -
Mo, 22.10. 1:00 0.0 l/m2 in 1 Std. -
Ortszeit Stärke Spitze Richtung
km/h Bft. km/h Grad Sektor
Mo, 22.10. 2:00 6 1 7 170° S
So, 21.10. 20:00 7 2 25 160° S
So, 21.10. 14:00 9 2 22 20° N
So, 21.10. 8:00 4 1 14 150° SO
So, 21.10. 2:00 2 1 13 30° NO
Sa, 20.10. 20:00 6 1 20 160° S
Sa, 20.10. 14:00 9 2 15 30° NO
Sa, 20.10. 8:00 4 1 18 350° N
Ortszeit Stärke Spitze Richtung
km/h Bft. km/h Grad Sektor
Mo, 22.10. 4:30 4 1 4 170° S
Mo, 22.10. 4:20 4 1 - 170° S
Mo, 22.10. 4:10 4 1 - 160° S
Mo, 22.10. 4:00 4 1 7 170° S
Mo, 22.10. 3:50 4 1 - 170° S
Mo, 22.10. 3:40 2 1 - 180° S
Mo, 22.10. 3:30 4 1 7 180° S
Mo, 22.10. 3:00 0 0 7 - -
Mo, 22.10. 2:30 0 0 7 - -
Mo, 22.10. 2:00 6 1 7 170° S
Mo, 22.10. 1:30 4 1 7 160° S
Mo, 22.10. 1:00 0 0 7 - -
Ortszeit Untergrenze Bedeckung Gattung
total tief tief mittel hoch
Mo, 22.10. 2:00 - 0/8 0/8 - - -
So, 21.10. 20:00 - 0/8 0/8 - - -
So, 21.10. 14:00 540 m 8/8 8/8 - - -
So, 21.10. 8:00 480 m 8/8 8/8 - - -
So, 21.10. 2:00 480 m 8/8 8/8 - - -
Sa, 20.10. 20:00 - 0/8 0/8 - - -
Sa, 20.10. 14:00 - 0/8 0/8 - - -
Sa, 20.10. 8:00 120 m 8/8 8/8 - - -
Ortszeit Bedeckungsgrad in Achtel und Wolkenuntergrenze
Mo, 22.10. 4:30 1(<30m)
Mo, 22.10. 4:20 1(<30m)
Mo, 22.10. 4:10 1(<30m)
Mo, 22.10. 4:00 4(<30m)
Mo, 22.10. 3:50 4(<30m)
Mo, 22.10. 3:40 6(<30m)
Mo, 22.10. 3:30 3(<30m)
Mo, 22.10. 3:00 3(<30m)
Mo, 22.10. 2:30 keine Wolken
Mo, 22.10. 2:00 keine Wolken
Mo, 22.10. 1:30 2(<30m)
Mo, 22.10. 1:00 1(<30m)
Ortszeit Stationsdruck (hPa) Tendenz (hPa in 3 Std.)
Mo, 22.10. 2:00 931 - 0,4
So, 21.10. 20:00 931 + 0,3
So, 21.10. 14:00 932 - 1,2
So, 21.10. 8:00 933 - 0,2
So, 21.10. 2:00 934 - 0,9
Sa, 20.10. 20:00 935 + 1,3
Sa, 20.10. 14:00 934 - 0,5
Sa, 20.10. 8:00 933 + 1,4
Ortszeit Stationsdruck (hPa) Tendenz (hPa in 3 Std.)
Mo, 22.10. 4:30 931 - 0,7
Mo, 22.10. 4:20 931 keine Meldung
Mo, 22.10. 4:10 931 keine Meldung
Mo, 22.10. 4:00 931 - 0,7
Mo, 22.10. 3:50 931 keine Meldung
Mo, 22.10. 3:40 931 keine Meldung
Mo, 22.10. 3:30 931 - 0,6
Mo, 22.10. 3:00 931 - 0,4
Mo, 22.10. 2:30 931 - 0,3
Mo, 22.10. 2:00 931 - 0,4
Mo, 22.10. 1:30 931 - 0,4
Mo, 22.10. 1:00 931 0,0
Ortszeit Schneehöhe (cm)
Mo, 22.10. 2:00 0
So, 21.10. 20:00 0
So, 21.10. 14:00 0
So, 21.10. 8:00 0
So, 21.10. 2:00 0
Sa, 20.10. 20:00 0
Sa, 20.10. 14:00 0
Sa, 20.10. 8:00 0
Ortszeit Schneehöhe (cm)
Mo, 22.10. 4:30 0
Mo, 22.10. 4:20 0
Mo, 22.10. 4:10 0
Mo, 22.10. 4:00 0
Mo, 22.10. 3:50 0
Mo, 22.10. 3:40 0
Mo, 22.10. 3:30 0
Mo, 22.10. 3:00 0
Mo, 22.10. 2:30 0
Mo, 22.10. 2:00 0
Mo, 22.10. 1:30 0
Mo, 22.10. 1:00 0
Link zu dieser Seite / Seite empfehlen

Das Wetter in ...